This is the latest recevied weather packets stored in our database for station/object EA1L-13. If no packets are shown the sender has not sent any weather packets the latest 1 day(s).
| Time | Temp. | Humidity | Pressure | Rain* | Wind** | Luminosity | Snow |
|---|---|---|---|---|---|---|---|
| 1778089504 | 12.22° C | 73% | 1011.4 hPa | 0 mm | - | - | - |
| 1778077805 | 13.33° C | 86% | 1011.7 hPa | 0.76 mm | - | - | - |
| 1778076904 | 12.78° C | 85% | 1011.9 hPa | 0.76 mm | - | - | - |
| 1778076006 | 12.22° C | 77% | 1012.1 hPa | 0.76 mm | - | - | - |
| 1778071504 | 13.33° C | 69% | 1012.6 hPa | 0 mm | - | - | - |
| 1778067904 | 15° C | 60% | 1012.6 hPa | 0 mm | - | - | - |
| 1778067005 | 14.44° C | 62% | 1012.7 hPa | 0 mm | - | - | - |
| 1778064304 | 13.33° C | 79% | 1012.9 hPa | 0 mm | - | - | - |
| 1778063405 | 13.33° C | 99% | 1012.9 hPa | 0 mm | - | - | - |
| 1778062504 | 13.89° C | 100% | 1012.9 hPa | 0 mm | - | - | - |
| 1778061605 | 13.89° C | 100% | 1013 hPa | 0 mm | - | - | - |
| 1778060704 | 13.89° C | 100% | 1013 hPa | 0 mm | - | - | - |
| 1778057104 | 13.33° C | 100% | 1013.1 hPa | 0 mm | - | - | - |
| 1778056205 | 12.78° C | 100% | 1013.1 hPa | 0 mm | - | - | - |
| 1778055304 | 12.78° C | 100% | 1013.2 hPa | 0 mm | - | - | - |
| 1778053505 | 12.22° C | 100% | 1013.1 hPa | 0 mm | - | - | - |
| 1778050805 | 11.11° C | 100% | 1012.9 hPa | 0.25 mm | - | - | - |
| 1778045405 | 10° C | 100% | 1012.6 hPa | 0 mm | - | - | - |
| 1778044504 | 10° C | 100% | 1012.4 hPa | 0 mm | - | - | - |
| 1778040904 | 9.44° C | 100% | 1012.6 hPa | 0 mm | - | - | - |
| 1778039105 | 10° C | 100% | 1012.7 hPa | 0 mm | - | - | - |
| 1778037304 | 10° C | 100% | 1012.8 hPa | 0 mm | - | - | - |
| 1778033704 | 9.44° C | 100% | 1012.9 hPa | 0 mm | - | - | - |
| 1778031904 | 9.44° C | 100% | 1013.1 hPa | 0 mm | - | - | - |
| 1778031005 | 9.44° C | 100% | 1013.1 hPa | 0 mm | - | - | - |
* Rain latest hour (hover to see other rain measurements)
** Current wind speed in m/s (hover to see current wind gust speed)